This is the latest recevied weather packets stored in our database for station/object N5CSU. If no packets are shown the sender has not sent any weather packets the latest 10 day(s).
| Time | Temp. | Humidity | Pressure | Rain* | Wind** | Luminosity | Snow |
|---|---|---|---|---|---|---|---|
| 1788445552 | 27.22° C | 86% | 1014.2 hPa | 0 mm | - | 16 W/m² | - |
| 1788445249 | 27.22° C | 86% | 1014.1 hPa | 0 mm | - | 20 W/m² | - |
| 1788444944 | 26.67° C | 87% | 1014.3 hPa | 0 mm | - | 23 W/m² | - |
| 1788444639 | 26.67° C | 87% | 1014.2 hPa | 0 mm | - | 18 W/m² | - |
| 1788444334 | 26.67° C | 87% | 1014.2 hPa | 0 mm | - | 14 W/m² | - |
| 1788444029 | 26.67° C | 88% | 1014.3 hPa | 0 mm | - | 12 W/m² | - |
| 1788443725 | 26.11° C | 88% | 1014.5 hPa | 0 mm | - | 7 W/m² | - |
| 1788443425 | 26.11° C | 88% | 1014.3 hPa | 0 mm | - | 5 W/m² | - |
| 1788443124 | 26.11° C | 88% | 1014.5 hPa | 0 mm | - | 3 W/m² | - |
| 1788442820 | 26.11° C | 88% | 1014.4 hPa | 0 mm | - | 2 W/m² | - |
| 1788442518 | 26.11° C | 88% | 1014.4 hPa | 0 mm | - | 2 W/m² | - |
| 1788442213 | 26.11° C | 88% | 1014.2 hPa | 0 mm | - | 2 W/m² | - |
| 1788441908 | 26.11° C | 88% | 1014.1 hPa | 0 mm | - | 2 W/m² | - |
| 1788441603 | 26.11° C | 88% | 1014.2 hPa | 0 mm | - | 2 W/m² | - |
| 1788441298 | 26.11° C | 88% | 1014 hPa | 0 mm | - | 3 W/m² | - |
| 1788440996 | 26.11° C | 88% | 1013.9 hPa | 0 mm | - | 5 W/m² | - |
| 1788440692 | 26.11° C | 88% | 1013.8 hPa | 0 mm | - | 4 W/m² | - |
| 1788440391 | 26.11° C | 88% | 1013.9 hPa | 0 mm | - | 4 W/m² | - |
| 1788440090 | 26.11° C | 88% | 1013.9 hPa | 0 mm | - | 3 W/m² | - |
| 1788439791 | 26.11° C | 88% | 1013.8 hPa | 0 mm | - | 3 W/m² | - |
| 1788439486 | 26.11° C | 88% | 1014 hPa | 0 mm | - | 2 W/m² | - |
| 1788439185 | 26.11° C | 88% | 1014.1 hPa | 0 mm | - | 1 W/m² | - |
| 1788438879 | 26.11° C | 88% | 1013.9 hPa | 0 mm | - | 1 W/m² | - |
| 1788438578 | 26.11° C | 88% | 1013.7 hPa | 0 mm | - | 1 W/m² | - |
| 1788438273 | 26.11° C | 88% | 1013.8 hPa | 0 mm | - | 0 W/m² | - |
* Rain latest hour (hover to see other rain measurements)
** Current wind speed in m/s (hover to see current wind gust speed)